Wind_Speed
32 32 32 32 32 31 31 32 32 32 32 33 34 34 33 34 34 33 34 35 35 36 37 38 38 37 36 37 37 37 37 37 38 39 40 40 41 42
30 31 31 31 31 30 30 31 32 33 34 33 33 33 33 33 33 33 34 35 35 36 37 36 35 35 35 35 35 35 36 36 36 37 38 39 41 41
28 29 30 30 30 30 30 30 31 31 31 31 32 31 31 31 32 33 34 34 34 34 33 34 33 33 33 32 32 33 34 35 35 36 37 37 38 37
27 28 28 29 28 29 29 28 29 29 29 30 30 29 29 30 31 31 30 30 30 31 31 30 29 29 29 30 30 31 33 34 34 35 35 35 34 33
24 24 25 26 27 27 26 26 25 25 26 27 27 26 26 27 27 26 26 27 27 27 26 26 26 27 28 29 30 31 32 32 33 33 32 32 31 29
22 22 22 23 24 24 24 24 24 24 24 24 24 25 25 25 25 25 25 25 24 24 24 24 25 26 27 28 29 30 30 30 30 30 29 28 27 26
21 20 20 21 22 21 22 22 23 23 23 24 23 23 23 23 23 23 22 22 22 22 23 24 25 26 27 27 28 28 28 28 28 27 26 25 23 22
19 20 19 19 20 20 20 19 19 20 20 20 20 20 21 21 21 20 20 20 21 21 22 23 24 25 26 26 27 27 26 26 25 24 23 21 21 20
18 19 19 19 19 19 18 19 18 19 19 18 18 19 19 19 19 19 19 20 20 21 22 23 23 24 24 25 25 24 24 23 22 21 20 19 18 18
18 19 18 17 17 17 17 17 18 18 17 18 18 18 17 17 17 17 18 19 20 21 21 21 22 22 22 22 22 21 21 20 19 18 17 17 16 16
14 14 14 14 15 15 16 16 16 16 16 16 16 16 16 17 17 18 18 18 19 20 20 21 21 21 20 20 19 19 18 17 16 16 16 15 15 15
10 10 10 10 11 12 13 14 14 14 14 14 15 15 15 16 16 17 17 17 18 18 19 19 19 18 18 17 17 16 15 15 15 14 14 14 14 15
8 9 10 10 10 10 11 12 13 13 13 13 14 14 15 15 15 15 16 16 16 16 16 17 16 16 16 15 14 14 13 14 14 13 13 14 14 15
7 7 8 8 9 10 10 10 10 10 11 11 12 12 13 13 13 13 13 14 14 14 15 15 15 14 14 13 13 12 12 13 13 12 13 14 14 15
7 6 6 6 7 8 8 8 8 8 9 9 9 10 10 10 10 11 11 11 12 13 13 13 12 12 12 12 12 12 12 12 12 12 12 14 15 16
5 5 5 5 5 5 6 6 7 7 7 7 7 7 8 8 8 9 9 10 11 11 11 11 10 11 11 11 11 12 12 12 12 13 14 14 15 16
2 2 2 3 3 4 4 5 5 5 5 5 6 6 6 6 7 7 8 9 9 9 10 10 9 10 10 10 11 12 12 12 13 14 15 15 16 17
0 0 1 2 2 3 3 3 3 3 4 4 5 5 5 5 6 7 8 8 9 9 9 10 10 10 10 11 12 12 12 13 14 15 16 16 17 17
2 2 2 2 2 2 2 3 3 4 4 4 5 5 5 6 6 7 8 9 9 10 10 10 11 11 11 11 12 13 14 15 16 16 17 17 18 18
5 5 5 5 5 5 5 5 5 5 5 5 5 6 6 7 7 8 9 9 10 10 11 11 11 11 12 12 13 14 15 16 17 18 18 19 19 20
7 7 7 7 7 7 7 6 6 7 7 7 7 7 7 7 8 9 9 10 11 11 12 12 12 13 13 14 14 15 17 17 18 19 19 20 20 21
9 9 9 9 9 9 8 8 8 8 8 8 8 8 8 9 10 10 11 11 12 12 13 13 14 14 15 16 16 17 17 18 19 19 20 21 21 21
11 11 11 11 11 11 10 10 10 10 10 10 10 10 10 10 11 12 12 13 13 14 14 15 15 16 16 17 17 17 18 18 19 19 20 22 23 23
Wind_Direction
260 261 262 261 260 261 260 260 261 264 264 264 268 270 269 272 272 273 274 275 276 277 278 280 281 282 285 288 289 291 292 293 294 294 296 297 298 298
261 262 263 262 262 263 262 261 262 263 264 266 268 268 270 271 271 273 274 276 278 279 281 281 283 285 288 290 291 292 294 295 297 297 298 299 298 299
263 263 263 263 263 264 264 262 264 264 265 267 269 271 274 275 274 274 276 279 280 281 282 285 286 288 290 292 294 295 296 297 299 299 300 300 301 301
264 263 262 263 264 264 265 267 267 267 268 270 272 272 273 274 275 277 281 283 284 285 287 289 290 292 294 295 296 298 299 300 300 301 302 302 302 302
265 263 261 262 262 266 268 268 271 271 271 272 272 274 275 277 279 282 284 286 289 289 290 292 294 295 295 296 298 299 300 301 302 302 302 302 301 302
264 263 263 263 264 267 269 269 269 271 271 272 274 275 276 277 278 281 285 288 292 292 292 294 295 295 297 299 299 300 301 301 302 302 302 301 302 303
261 263 266 264 264 265 267 269 271 274 276 275 276 278 279 281 284 287 288 290 292 294 295 297 297 298 299 300 300 301 301 302 302 302 302 303 303 304
259 260 261 261 262 264 266 268 272 273 275 276 277 279 281 284 287 289 291 294 296 297 298 298 298 298 300 301 301 302 302 303 303 303 304 304 305 306
256 257 257 259 261 264 267 269 270 272 274 275 277 283 287 288 289 291 294 297 298 299 299 299 299 300 301 301 302 303 304 305 305 305 305 305 306 307
259 257 257 257 260 261 263 267 271 273 273 274 276 281 286 287 290 293 296 297 297 297 298 299 301 301 301 302 304 305 306 307 307 307 308 309 310 311
254 254 253 251 255 259 262 265 268 270 272 274 281 287 289 291 293 295 296 298 298 299 300 301 302 302 303 305 306 308 309 310 311 311 312 314 316 316
249 249 247 252 256 259 261 263 268 273 279 283 287 289 291 292 294 295 297 298 299 300 301 303 304 304 305 307 309 312 313 315 316 316 316 318 320 320
249 254 257 263 265 266 268 272 273 276 281 285 288 290 291 293 295 298 299 300 301 303 304 305 306 307 308 310 312 314 315 316 317 318 319 321 321 321
248 257 266 267 270 272 275 279 281 282 285 289 291 294 295 295 297 300 302 304 305 307 309 310 310 311 312 314 316 317 317 317 317 318 319 321 322 323
254 264 263 265 274 275 276 280 285 290 293 297 300 302 302 303 304 306 307 310 312 314 315 316 316 317 318 319 320 321 321 321 321 320 320 321 323 324
245 252 255 261 270 274 281 288 295 299 300 304 306 306 307 309 311 312 314 319 321 322 323 325 325 325 325 324 323 325 325 325 325 324 323 322 323 325
244 262 262 273 289 298 304 309 310 310 312 316 316 318 319 321 322 325 328 331 333 334 335 336 335 333 332 332 331 331 330 329 327 326 325 324 324 324
209 359 336 325 317 314 322 335 339 338 339 340 341 341 342 343 342 342 343 344 344 344 343 341 339 338 338 338 336 334 332 330 329 327 326 325 324 324
76 60 48 42 40 38 34 32 29 23 21 19 15 11 6 2 360 356 354 352 350 348 347 345 343 341 340 339 337 334 331 329 328 327 326 325 324 324
78 72 69 70 70 66 61 59 55 48 41 35 27 21 17 12 6 0 357 356 355 352 350 347 345 342 340 337 334 331 330 328 326 324 324 324 324 323
82 79 76 73 71 69 67 63 56 50 44 38 33 27 21 15 10 6 2 358 354 351 350 348 345 342 339 336 333 330 328 327 325 324 323 322 322 321
85 82 78 76 74 72 70 66 61 55 50 44 38 33 25 17 11 6 1 356 352 350 348 345 342 339 336 334 331 329 327 327 326 325 324 323 323 322
85 81 78 75 73 72 69 66 61 56 50 44 39 32 24 18 14 10 6 1 357 353 349 345 341 338 336 335 334 332 331 329 328 327 326 325 324 323
Height
5787 5789 5790 5792 5793 5794 5796 5797 5799 5799 5799 5800 5801 5801 5802 5803 5803 5803 5802 5802 5802 5801 5801 5799 5798 5797 5795 5794 5792 5790 5788 5785 5782 5780 5777 5773 5769 5765
5780 5781 5783 5784 5785 5787 5788 5790 5791 5792 5792 5793 5793 5794 5794 5794 5795 5795 5794 5794 5793 5793 5792 5791 5789 5788 5786 5785 5783 5781 5779 5776 5773 5770 5767 5763 5759 5755
5772 5774 5775 5777 5778 5780 5781 5782 5783 5785 5785 5786 5786 5786 5786 5787 5786 5787 5787 5786 5785 5784 5783 5782 5781 5780 5778 5776 5775 5772 5770 5767 5764 5761 5757 5754 5750 5746
5765 5766 5768 5770 5771 5773 5774 5775 5776 5777 5778 5779 5779 5779 5779 5779 5779 5779 5778 5778 5777 5776 5775 5774 5773 5772 5770 5769 5766 5764 5761 5758 5755 5752 5748 5745 5741 5738
5758 5759 5761 5763 5765 5766 5767 5768 5770 5770 5771 5772 5772 5772 5772 5772 5772 5772 5771 5771 5770 5769 5768 5767 5766 5764 5763 5761 5758 5756 5753 5750 5747 5743 5740 5737 5734 5730
5752 5753 5755 5757 5759 5760 5761 5762 5763 5764 5765 5765 5765 5766 5766 5766 5765 5765 5765 5764 5763 5762 5761 5760 5759 5757 5755 5753 5750 5748 5745 5742 5739 5736 5733 5730 5727 5724
5746 5748 5749 5751 5753 5754 5755 5757 5757 5758 5758 5759 5759 5760 5760 5760 5760 5759 5758 5757 5757 5756 5755 5753 5751 5750 5747 5745 5743 5740 5738 5735 5732 5729 5726 5723 5720 5718
5741 5743 5744 5746 5747 5749 5750 5751 5752 5753 5753 5753 5754 5754 5754 5754 5753 5753 5752 5752 5751 5750 5748 5747 5745 5743 5740 5738 5736 5733 5731 5728 5725 5723 5720 5717 5715 5712
5736 5737 5739 5740 5742 5743 5744 5746 5746 5747 5748 5749 5749 5749 5749 5749 5748 5747 5747 5746 5744 5743 5742 5740 5739 5736 5734 5732 5730 5727 5725 5722 5719 5717 5715 5712 5710 5707
5731 5733 5734 5736 5737 5739 5740 5741 5741 5742 5743 5743 5744 5744 5743 5743 5742 5742 5741 5740 5739 5737 5736 5734 5732 5730 5728 5726 5724 5721 5719 5716 5714 5712 5710 5707 5705 5703
5727 5728 5730 5731 5733 5734 5735 5736 5737 5738 5738 5738 5739 5739 5738 5738 5737 5736 5735 5734 5733 5732 5730 5729 5727 5725 5723 5720 5718 5716 5714 5712 5710 5708 5705 5704 5702 5699
5724 5725 5727 5728 5729 5730 5731 5732 5733 5734 5734 5734 5734 5734 5734 5733 5732 5731 5730 5729 5728 5727 5725 5724 5722 5720 5718 5716 5714 5712 5710 5708 5706 5704 5702 5700 5698 5696
5722 5723 5724 5725 5726 5727 5728 5729 5729 5730 5730 5730 5730 5730 5729 5729 5728 5727 5726 5725 5724 5722 5721 5719 5717 5715 5714 5712 5710 5708 5706 5705 5703 5701 5699 5697 5696 5694
5720 5721 5722 5723 5724 5724 5725 5726 5726 5726 5726 5726 5726 5726 5725 5725 5724 5723 5722 5721 5720 5718 5717 5715 5713 5712 5710 5709 5707 5706 5704 5702 5700 5698 5697 5695 5693 5691
5718 5719 5720 5721 5721 5722 5723 5723 5723 5723 5723 5723 5723 5722 5722 5721 5721 5720 5719 5718 5717 5715 5713 5712 5710 5709 5707 5706 5704 5703 5701 5700 5698 5696 5694 5693 5690 5688
5717 5717 5718 5719 5719 5720 5720 5720 5721 5721 5721 5721 5720 5720 5720 5719 5718 5717 5717 5716 5714 5713 5711 5709 5708 5707 5705 5703 5702 5700 5699 5697 5696 5694 5692 5690 5688 5686
5716 5716 5717 5717 5718 5718 5718 5719 5719 5719 5719 5719 5718 5718 5717 5717 5716 5716 5715 5714 5713 5711 5710 5708 5706 5705 5703 5702 5700 5698 5697 5695 5693 5691 5689 5687 5685 5683
5715 5716 5716 5716 5717 5717 5718 5718 5718 5718 5718 5718 5717 5717 5716 5716 5715 5714 5714 5713 5711 5710 5709 5707 5705 5704 5702 5701 5699 5697 5695 5693 5691 5689 5687 5685 5682 5680
5715 5715 5716 5716 5716 5717 5717 5717 5717 5717 5717 5717 5716 5716 5716 5715 5715 5714 5713 5712 5711 5709 5708 5706 5704 5703 5701 5699 5698 5696 5694 5691 5689 5687 5684 5682 5679 5677
5715 5716 5716 5716 5717 5717 5717 5717 5717 5717 5717 5717 5717 5716 5716 5715 5715 5714 5713 5711 5710 5708 5707 5705 5703 5701 5700 5698 5696 5694 5691 5689 5686 5684 5681 5678 5676 5673
5717 5717 5717 5718 5718 5718 5718 5718 5718 5718 5718 5718 5717 5717 5716 5716 5715 5714 5712 5711 5709 5708 5706 5704 5702 5700 5698 5696 5694 5692 5689 5686 5683 5680 5678 5675 5672 5669
5718 5719 5719 5719 5719 5719 5719 5720 5719 5719 5719 5719 5718 5718 5717 5716 5715 5714 5712 5710 5709 5707 5705 5703 5701 5699 5697 5694 5692 5689 5687 5684 5680 5677 5674 5671 5668 5665
5721 5721 5721 5721 5721 5721 5721 5721 5721 5721 5721 5720 5720 5719 5718 5717 5715 5714 5712 5710 5708 5706 5704 5702 5700 5697 5695 5692 5689 5686 5683 5680 5677 5674 5671 5667 5664 5660